| time (UTC) | temp F | wind direction | speed knots | gust knots | rain 1hr in | rain 24hr in | rain mn in | humidity % | barometer mb |
| 20260902182546 | 67 | 121 | 1.7 | 9.6 | 0.00 | 0.00 | 0.00 | 64 | 1005.2 |
| 20260902182046 | 67 | 164 | 4.3 | 10.4 | 0.00 | 0.00 | 0.00 | 62 | 1005.3 |
| 20260902181600 | 67 | 172 | 5.2 | 10.4 | 0.00 | 0.00 | 0.00 | 62 | 1005.3 |
| 20260902181043 | 67 | 172 | 3.5 | 13.9 | 0.00 | 0.00 | 0.00 | 64 | 1005.4 |
| 20260902180546 | 67 | 169 | 6.1 | 13.9 | 0.00 | 0.00 | 0.00 | 63 | 1005.4 |
| 20260902180131 | 67 | 167 | 6.1 | 13.9 | 0.00 | 0.00 | 0.00 | 60 | 1005.5 |
| 20260902175546 | 66 | 173 | 4.3 | 13.9 | 0.00 | 0.00 | 0.00 | 63 | 1005.5 |
| 20260902175045 | 66 | 119 | 7.0 | 13.0 | 0.00 | 0.00 | 0.00 | 63 | 1005.6 |
| 20260902174605 | 66 | 127 | 3.5 | 12.2 | 0.00 | 0.00 | 0.00 | 64 | 1005.6 |
| 20260902174045 | 66 | 192 | 3.5 | 10.4 | 0.00 | 0.00 | 0.00 | 63 | 1005.6 |
| 20260902173546 | 66 | 161 | 3.5 | 15.6 | 0.00 | 0.00 | 0.00 | 64 | 1005.5 |
| 20260902173102 | 66 | 123 | 5.2 | 15.6 | 0.00 | 0.00 | 0.00 | 64 | 1005.5 |
| 20260902172546 | 66 | 167 | 5.2 | 12.2 | 0.00 | 0.00 | 0.00 | 64 | 1005.6 |
| 20260902172045 | 66 | 148 | 4.3 | 10.4 | 0.00 | 0.00 | 0.00 | 65 | 1005.7 |
| 20260902171604 | 66 | 137 | 3.5 | 12.2 | 0.00 | 0.00 | 0.00 | 65 | 1005.7 |
| 20260902171050 | 66 | 175 | 2.6 | 12.2 | 0.00 | 0.00 | 0.00 | 65 | 1005.9 |
| 20260902170547 | 66 | 132 | 3.5 | 12.2 | 0.00 | 0.00 | 0.00 | 66 | 1005.8 |
| 20260902170100 | 66 | 167 | 5.2 | 11.3 | 0.00 | 0.00 | 0.00 | 65 | 1006.0 |
| 20260902165548 | 66 | 203 | 4.3 | 12.2 | 0.00 | 0.00 | 0.00 | 66 | 1005.9 |
| 20260902165049 | 67 | 164 | 6.1 | 12.2 | 0.00 | 0.00 | 0.00 | 65 | 1006.0 |
| 20260902164603 | 67 | 161 | 2.6 | 10.4 | 0.00 | 0.00 | 0.00 | 67 | 1005.9 |
| 20260902164046 | 66 | 167 | 2.6 | 10.4 | 0.00 | 0.00 | 0.00 | 68 | 1006.1 |
| 20260902163546 | 65 | 191 | 5.2 | 14.8 | 0.00 | 0.00 | 0.00 | 69 | 1006.1 |
| 20260902163101 | 65 | 171 | 3.5 | 14.8 | 0.00 | 0.00 | 0.00 | 71 | 1006.4 |
| 20260902162546 | 64 | 118 | 1.7 | 9.6 | 0.00 | 0.00 | 0.00 | 72 | 1006.4 |
| 20260902162046 | 64 | 133 | 3.5 | 9.6 | 0.00 | 0.00 | 0.00 | 72 | 1006.5 |
| 20260902161603 | 63 | 195 | 4.3 | 9.6 | 0.00 | 0.00 | 0.00 | 73 | 1006.5 |
| 20260902161045 | 63 | 184 | 0.9 | 7.8 | 0.00 | 0.00 | 0.00 | 75 | 1006.5 |
| 20260902160545 | 63 | 152 | 0.9 | 9.6 | 0.00 | 0.00 | 0.00 | 77 | 1006.5 |
| 20260902160107 | 62 | 160 | 2.6 | 11.3 | 0.00 | 0.00 | 0.00 | 77 | 1006.6 |
| 20260902155544 | 62 | 175 | 3.5 | 11.3 | 0.00 | 0.00 | 0.00 | 77 | 1006.7 |
| 20260902155050 | 61 | 155 | 6.1 | 11.3 | 0.00 | 0.00 | 0.00 | 78 | 1006.8 |
| 20260902154618 | 61 | 152 | 4.3 | 9.6 | 0.00 | 0.00 | 0.00 | 77 | 1006.8 |
| 20260902154050 | 61 | 160 | 4.3 | 10.4 | 0.00 | 0.00 | 0.00 | 79 | 1006.8 |
| 20260902153545 | 61 | 151 | 3.5 | 10.4 | 0.00 | 0.00 | 0.00 | 80 | 1006.9 |
| 20260902153103 | 61 | 142 | 4.3 | 10.4 | 0.00 | 0.00 | 0.00 | 80 | 1006.9 |
| 20260902152548 | 61 | 147 | 0.9 | 7.8 | 0.00 | 0.00 | 0.00 | 82 | 1006.9 |
| 20260902152047 | 61 | 182 | 1.7 | 7.8 | 0.00 | 0.00 | 0.00 | 82 | 1006.9 |
| 20260902151559 | 60 | 145 | 0.0 | 5.2 | 0.00 | 0.00 | 0.00 | 83 | 1007.1 |
| 20260902151047 | 60 | 0 | 0.9 | 5.2 | 0.00 | 0.00 | 0.00 | 83 | 1007.0 |
| 20260902150551 | 60 | 0 | 0.0 | 6.1 | 0.00 | 0.00 | 0.00 | 84 | 1007.1 |
| 20260902150058 | 60 | 0 | 0.0 | 6.1 | 0.00 | 0.00 | 0.00 | 84 | 1007.1 |
| 20260902145546 | 60 | 142 | 1.7 | 5.2 | 0.00 | 0.00 | 0.00 | 84 | 1007.2 |
| 20260902145046 | 59 | 141 | 0.0 | 6.1 | 0.00 | 0.00 | 0.00 | 85 | 1007.2 |
| 20260902144603 | 59 | 142 | 0.9 | 7.0 | 0.00 | 0.00 | 0.00 | 85 | 1007.4 |
| 20260902144046 | 59 | 145 | 0.9 | 7.0 | 0.00 | 0.00 | 0.00 | 85 | 1007.4 |
| 20260902143547 | 59 | 0 | 0.9 | 5.2 | 0.00 | 0.00 | 0.00 | 85 | 1007.3 |
| 20260902143058 | 59 | 173 | 0.0 | 6.1 | 0.00 | 0.00 | 0.00 | 85 | 1007.4 |
| 20260902142546 | 59 | 174 | 0.9 | 8.7 | 0.00 | 0.00 | 0.00 | 85 | 1007.4 |
| 20260902142047 | 59 | 0 | 1.7 | 8.7 | 0.00 | 0.00 | 0.00 | 85 | 1007.5 |
| 20260902141600 | 59 | 155 | 1.7 | 8.7 | 0.00 | 0.00 | 0.00 | 86 | 1007.5 |
| 20260902141046 | 59 | 159 | 1.7 | 6.1 | 0.00 | 0.00 | 0.00 | 87 | 1007.5 |
| 20260902140549 | 59 | 146 | 0.9 | 7.0 | 0.00 | 0.00 | 0.00 | 87 | 1007.4 |
| 20260902140105 | 59 | 0 | 0.9 | 7.0 | 0.00 | 0.00 | 0.00 | 87 | 1007.4 |
| 20260902135544 | 59 | 0 | 0.0 | 7.8 | 0.00 | 0.00 | 0.00 | 87 | 1007.4 |
| 20260902135046 | 59 | 0 | 0.0 | 9.6 | 0.00 | 0.00 | 0.00 | 87 | 1007.4 |
| 20260902134600 | 59 | 0 | 1.7 | 9.6 | 0.00 | 0.00 | 0.00 | 87 | 1007.5 |
| 20260902134046 | 59 | 146 | 1.7 | 7.0 | 0.00 | 0.00 | 0.00 | 87 | 1007.4 |
| 20260902133546 | 59 | 0 | 1.7 | 7.0 | 0.00 | 0.00 | 0.00 | 87 | 1007.5 |
| 20260902133104 | 59 | 125 | 1.7 | 8.7 | 0.00 | 0.00 | 0.00 | 87 | 1007.4 |
| 20260902132549 | 59 | 172 | 1.7 | 8.7 | 0.00 | 0.00 | 0.00 | 87 | 1007.5 |
| 20260902132046 | 59 | 0 | 0.9 | 6.1 | 0.00 | 0.00 | 0.00 | 87 | 1007.5 |
| 20260902131608 | 59 | 0 | 0.9 | 7.0 | 0.00 | 0.00 | 0.00 | 87 | 1007.5 |
| 20260902131047 | 59 | 0 | 0.9 | 10.4 | 0.00 | 0.00 | 0.00 | 87 | 1007.6 |
| 20260902130546 | 59 | 148 | 1.7 | 10.4 | 0.00 | 0.00 | 0.00 | 87 | 1007.6 |
| 20260902130103 | 59 | 152 | 3.5 | 7.8 | 0.00 | 0.00 | 0.00 | 87 | 1007.7 |
| 20260902125547 | 59 | 176 | 3.5 | 7.8 | 0.00 | 0.00 | 0.00 | 87 | 1007.6 |
| 20260902125047 | 59 | 169 | 2.6 | 8.7 | 0.00 | 0.00 | 0.00 | 87 | 1007.7 |
| 20260902124601 | 59 | 153 | 4.3 | 8.7 | 0.00 | 0.00 | 0.00 | 88 | 1007.7 |
| 20260902124050 | 59 | 164 | 2.6 | 8.7 | 0.00 | 0.00 | 0.00 | 88 | 1007.6 |
| 20260902123546 | 59 | 0 | 2.6 | 8.7 | 0.00 | 0.00 | 0.00 | 88 | 1007.7 |
| 20260902123057 | 59 | 164 | 1.7 | 8.7 | 0.00 | 0.00 | 0.00 | 89 | 1007.7 |
| 20260902122547 | 59 | 154 | 2.6 | 8.7 | 0.00 | 0.00 | 0.00 | 89 | 1007.7 |
| 20260902122048 | 59 | 179 | 2.6 | 8.7 | 0.00 | 0.00 | 0.00 | 89 | 1007.7 |
| 20260902121605 | 59 | 155 | 2.6 | 10.4 | 0.00 | 0.00 | 0.00 | 89 | 1007.7 |
| 20260902121047 | 58 | 152 | 3.5 | 12.2 | 0.00 | 0.00 | 0.00 | 89 | 1007.7 |
| 20260902120547 | 58 | 121 | 2.6 | 12.2 | 0.00 | 0.00 | 0.00 | 90 | 1007.7 |
| 20260902120100 | 58 | 163 | 0.9 | 10.4 | 0.00 | 0.00 | 0.00 | 90 | 1007.7 |
| 20260902115546 | 58 | 154 | 1.7 | 7.0 | 0.00 | 0.00 | 0.00 | 90 | 1007.7 |
| 20260902115046 | 58 | 0 | 0.9 | 6.1 | 0.00 | 0.00 | 0.00 | 90 | 1007.8 |
| 20260902114559 | 58 | 0 | 0.9 | 10.4 | 0.00 | 0.00 | 0.00 | 90 | 1007.8 |
| 20260902114049 | 58 | 144 | 1.7 | 10.4 | 0.00 | 0.00 | 0.00 | 90 | 1007.8 |
| 20260902113546 | 58 | 167 | 1.7 | 7.0 | 0.00 | 0.00 | 0.00 | 90 | 1007.9 |
| 20260902113114 | 59 | 154 | 0.9 | 6.1 | 0.00 | 0.00 | 0.00 | 90 | 1007.8 |
| 20260902112551 | 59 | 134 | 0.0 | 6.1 | 0.00 | 0.00 | 0.00 | 89 | 1007.8 |
| 20260902112049 | 59 | 0 | 0.9 | 7.8 | 0.00 | 0.00 | 0.00 | 89 | 1007.9 |
| 20260902111602 | 59 | 0 | 1.7 | 7.8 | 0.00 | 0.00 | 0.00 | 89 | 1007.9 |
| 20260902111047 | 59 | 144 | 0.9 | 6.1 | 0.00 | 0.00 | 0.00 | 89 | 1008.0 |
| 20260902110550 | 59 | 156 | 1.7 | 10.4 | 0.00 | 0.00 | 0.00 | 89 | 1008.1 |
| 20260902110058 | 59 | 136 | 2.6 | 10.4 | 0.00 | 0.00 | 0.00 | 88 | 1008.0 |
| 20260902105549 | 59 | 149 | 1.7 | 6.1 | 0.00 | 0.00 | 0.00 | 88 | 1008.0 |
| 20260902105046 | 59 | 84 | 2.6 | 7.0 | 0.00 | 0.00 | 0.00 | 88 | 1008.1 |
| 20260902104558 | 59 | 148 | 1.7 | 7.0 | 0.00 | 0.00 | 0.00 | 88 | 1008.0 |
| 20260902104047 | 59 | 129 | 3.5 | 7.8 | 0.00 | 0.00 | 0.00 | 88 | 1008.0 |
| 20260902103547 | 59 | 159 | 1.7 | 7.8 | 0.00 | 0.00 | 0.00 | 87 | 1008.1 |
| 20260902103104 | 59 | 0 | 1.7 | 7.0 | 0.00 | 0.00 | 0.00 | 87 | 1008.1 |
| 20260902102547 | 59 | 0 | 0.9 | 7.0 | 0.00 | 0.00 | 0.00 | 87 | 1008.2 |
| 20260902102047 | 59 | 155 | 2.6 | 7.8 | 0.00 | 0.00 | 0.00 | 87 | 1008.3 |
| 20260902101615 | 59 | 161 | 2.6 | 8.7 | 0.00 | 0.00 | 0.00 | 87 | 1008.3 |
| 20260902101045 | 59 | 173 | 2.6 | 8.7 | 0.00 | 0.00 | 0.00 | 87 | 1008.3 |
| 20260902100547 | 59 | 175 | 1.7 | 5.2 | 0.00 | 0.00 | 0.00 | 87 | 1008.4 |
| 20260902100058 | 59 | 149 | 0.9 | 4.3 | 0.00 | 0.00 | 0.00 | 87 | 1008.3 |
| 20260902095547 | 59 | 0 | 0.9 | 4.3 | 0.00 | 0.00 | 0.00 | 87 | 1008.3 |
| 20260902095046 | 59 | 149 | 0.9 | 4.3 | 0.00 | 0.00 | 0.00 | 87 | 1008.3 |
| 20260902094602 | 59 | 150 | 0.0 | 6.1 | 0.00 | 0.00 | 0.00 | 87 | 1008.4 |
| 20260902094046 | 59 | 0 | 0.9 | 6.1 | 0.00 | 0.00 | 0.00 | 87 | 1008.5 |
| 20260902093548 | 59 | 0 | 0.0 | 6.1 | 0.00 | 0.00 | 0.00 | 87 | 1008.6 |
| 20260902093100 | 59 | 0 | 0.9 | 6.1 | 0.00 | 0.00 | 0.00 | 86 | 1008.5 |
| 20260902092548 | 59 | 161 | 0.9 | 6.1 | 0.00 | 0.00 | 0.00 | 86 | 1008.6 |
| 20260902092047 | 59 | 0 | 1.7 | 7.0 | 0.00 | 0.00 | 0.00 | 86 | 1008.7 |
| 20260902091606 | 59 | 153 | 0.9 | 7.8 | 0.00 | 0.00 | 0.00 | 86 | 1008.7 |
| 20260902091046 | 59 | 154 | 0.9 | 8.7 | 0.00 | 0.00 | 0.00 | 85 | 1008.8 |
| 20260902090547 | 60 | 0 | 1.7 | 8.7 | 0.00 | 0.00 | 0.00 | 85 | 1008.8 |
| 20260902090122 | 60 | 166 | 1.7 | 7.8 | 0.00 | 0.00 | 0.00 | 85 | 1008.8 |
| 20260902085550 | 60 | 0 | 3.5 | 9.6 | 0.00 | 0.00 | 0.00 | 85 | 1008.8 |
| 20260902085047 | 60 | 175 | 2.6 | 9.6 | 0.00 | 0.00 | 0.00 | 85 | 1009.0 |
| 20260902084604 | 60 | 148 | 2.6 | 13.0 | 0.00 | 0.00 | 0.00 | 85 | 1009.0 |
| 20260902084047 | 60 | 149 | 2.6 | 13.0 | 0.00 | 0.00 | 0.00 | 85 | 1009.0 |
| 20260902083546 | 60 | 159 | 5.2 | 10.4 | 0.00 | 0.00 | 0.00 | 84 | 1009.1 |
| 20260902083056 | 60 | 162 | 4.3 | 10.4 | 0.00 | 0.00 | 0.00 | 84 | 1009.2 |
| 20260902082547 | 60 | 171 | 3.5 | 12.2 | 0.00 | 0.00 | 0.00 | 84 | 1009.2 |
| 20260902082046 | 60 | 133 | 4.3 | 12.2 | 0.00 | 0.00 | 0.00 | 84 | 1009.1 |
| 20260902081605 | 60 | 144 | 4.3 | 10.4 | 0.00 | 0.00 | 0.00 | 84 | 1009.2 |
| 20260902081046 | 60 | 181 | 5.2 | 11.3 | 0.00 | 0.00 | 0.00 | 85 | 1009.1 |
| 20260902080547 | 60 | 167 | 5.2 | 11.3 | 0.00 | 0.00 | 0.00 | 85 | 1009.1 |
| 20260902080111 | 60 | 150 | 3.5 | 10.4 | 0.00 | 0.00 | 0.00 | 86 | 1009.2 |
| 20260902075546 | 60 | 181 | 3.5 | 10.4 | 0.00 | 0.00 | 0.00 | 86 | 1009.1 |
| 20260902075050 | 60 | 117 | 4.3 | 12.2 | 0.00 | 0.00 | 0.00 | 86 | 1009.2 |
| 20260902074559 | 60 | 159 | 2.6 | 12.2 | 0.00 | 0.00 | 0.00 | 86 | 1009.2 |
| 20260902074046 | 60 | 156 | 3.5 | 12.2 | 0.00 | 0.00 | 0.00 | 87 | 1009.1 |
| 20260902073544 | 60 | 163 | 4.3 | 12.2 | 0.00 | 0.00 | 0.00 | 87 | 1009.1 |
| 20260902073103 | 60 | 150 | 3.5 | 12.2 | 0.00 | 0.00 | 0.00 | 87 | 1009.1 |
| 20260902072547 | 60 | 136 | 3.5 | 11.3 | 0.00 | 0.00 | 0.00 | 87 | 1009.3 |
| 20260902072047 | 60 | 149 | 5.2 | 10.4 | 0.00 | 0.00 | 0.00 | 87 | 1009.2 |
| 20260902071605 | 59 | 180 | 0.9 | 10.4 | 0.00 | 0.00 | 0.00 | 87 | 1009.3 |
| 20260902071044 | 59 | 142 | 2.6 | 10.4 | 0.00 | 0.00 | 0.00 | 87 | 1009.3 |
| 20260902070545 | 59 | 163 | 3.5 | 10.4 | 0.00 | 0.00 | 0.00 | 88 | 1009.2 |
| 20260902070105 | 59 | 165 | 0.9 | 7.0 | 0.00 | 0.00 | 0.00 | 88 | 1009.3 |
| 20260902065545 | 59 | 150 | 0.9 | 7.8 | 0.00 | 0.00 | 0.00 | 88 | 1009.3 |
| 20260902065049 | 59 | 0 | 1.7 | 8.7 | 0.00 | 0.00 | 0.00 | 87 | 1009.3 |
| 20260902064606 | 59 | 152 | 1.7 | 8.7 | 0.00 | 0.00 | 0.00 | 87 | 1009.3 |
| 20260902064047 | 60 | 160 | 1.7 | 7.8 | 0.00 | 0.00 | 0.00 | 87 | 1009.3 |
| 20260902063546 | 60 | 140 | 2.6 | 7.8 | 0.00 | 0.00 | 0.00 | 87 | 1009.3 |
| 20260902063058 | 60 | 166 | 1.7 | 6.1 | 0.00 | 0.00 | 0.00 | 87 | 1009.3 |
| 20260902062546 | 60 | 0 | 3.5 | 7.8 | 0.00 | 0.00 | 0.00 | 87 | 1009.3 |
| 20260902062047 | 60 | 159 | 1.7 | 7.8 | 0.00 | 0.00 | 0.00 | 86 | 1009.4 |
| 20260902061624 | 60 | 140 | 0.9 | 7.8 | 0.00 | 0.00 | 0.00 | 86 | 1009.5 |
| 20260902061047 | 60 | 150 | 1.7 | 12.2 | 0.00 | 0.00 | 0.00 | 86 | 1009.5 |
| 20260902060547 | 60 | 164 | 2.6 | 13.0 | 0.00 | 0.00 | 0.00 | 85 | 1009.5 |
| 20260902060106 | 60 | 170 | 4.3 | 13.0 | 0.00 | 0.00 | 0.00 | 85 | 1009.5 |
| 20260902055547 | 60 | 134 | 1.7 | 9.6 | 0.00 | 0.00 | 0.00 | 85 | 1009.5 |
| 20260902055046 | 60 | 155 | 2.6 | 7.8 | 0.00 | 0.00 | 0.00 | 85 | 1009.5 |
| 20260902054606 | 61 | 159 | 0.9 | 7.8 | 0.00 | 0.00 | 0.00 | 84 | 1009.5 |
| 20260902054044 | 61 | 148 | 2.6 | 7.8 | 0.00 | 0.00 | 0.00 | 84 | 1009.6 |
| 20260902053547 | 61 | 169 | 2.6 | 8.7 | 0.00 | 0.00 | 0.00 | 83 | 1009.6 |
| 20260902053104 | 61 | 0 | 0.9 | 11.3 | 0.00 | 0.00 | 0.00 | 83 | 1009.6 |
| 20260902052546 | 61 | 160 | 2.6 | 11.3 | 0.00 | 0.00 | 0.00 | 82 | 1009.7 |
| 20260902052044 | 62 | 173 | 4.3 | 9.6 | 0.00 | 0.00 | 0.00 | 82 | 1009.6 |
| 20260902051559 | 62 | 141 | 4.3 | 8.7 | 0.00 | 0.00 | 0.00 | 82 | 1009.7 |
| 20260902051046 | 62 | 134 | 3.5 | 8.7 | 0.00 | 0.00 | 0.00 | 82 | 1009.6 |
| 20260902050544 | 62 | 154 | 4.3 | 9.6 | 0.00 | 0.00 | 0.00 | 82 | 1009.6 |
| 20260902050106 | 62 | 167 | 3.5 | 9.6 | 0.00 | 0.00 | 0.00 | 82 | 1009.7 |
| 20260902045549 | 62 | 140 | 3.5 | 8.7 | 0.00 | 0.00 | 0.00 | 82 | 1009.6 |
| 20260902045046 | 62 | 140 | 0.0 | 7.0 | 0.00 | 0.00 | 0.00 | 82 | 1009.6 |
| 20260902044608 | 62 | 0 | 0.9 | 7.0 | 0.00 | 0.00 | 0.00 | 81 | 1009.6 |
| 20260902044046 | 62 | 129 | 2.6 | 7.0 | 0.00 | 0.00 | 0.00 | 81 | 1009.6 |
| 20260902043546 | 62 | 172 | 0.0 | 7.0 | 0.00 | 0.00 | 0.00 | 82 | 1009.5 |
| 20260902043103 | 62 | 172 | 2.6 | 7.8 | 0.00 | 0.00 | 0.00 | 81 | 1009.6 |
| 20260902042546 | 62 | 160 | 0.0 | 8.7 | 0.00 | 0.00 | 0.00 | 82 | 1009.6 |
| 20260902042047 | 62 | 160 | 2.6 | 8.7 | 0.00 | 0.00 | 0.00 | 81 | 1009.6 |
| 20260902041609 | 62 | 130 | 2.6 | 11.3 | 0.00 | 0.00 | 0.00 | 81 | 1009.6 |
| 20260902041046 | 62 | 147 | 2.6 | 11.3 | 0.00 | 0.00 | 0.00 | 81 | 1009.5 |
| 20260902040546 | 62 | 172 | 3.5 | 9.6 | 0.00 | 0.00 | 0.00 | 81 | 1009.5 |
| 20260902035546 | 63 | 157 | 3.5 | 9.6 | 0.00 | 0.00 | 0.00 | 81 | 1009.5 |
| 20260902035047 | 63 | 146 | 2.6 | 7.8 | 0.00 | 0.00 | 0.00 | 81 | 1009.5 |
| 20260902034604 | 63 | 148 | 1.7 | 7.8 | 0.00 | 0.00 | 0.00 | 81 | 1009.5 |
| 20260902034046 | 63 | 160 | 2.6 | 7.8 | 0.00 | 0.00 | 0.00 | 81 | 1009.5 |
| 20260902033546 | 63 | 152 | 3.5 | 8.7 | 0.00 | 0.00 | 0.00 | 81 | 1009.4 |
| 20260902033110 | 63 | 155 | 2.6 | 8.7 | 0.00 | 0.00 | 0.00 | 80 | 1009.4 |
| 20260902032547 | 63 | 193 | 2.6 | 7.8 | 0.00 | 0.00 | 0.00 | 80 | 1009.4 |
| 20260902032046 | 63 | 136 | 2.6 | 7.8 | 0.00 | 0.00 | 0.00 | 80 | 1009.3 |
| 20260902031559 | 63 | 0 | 1.7 | 7.8 | 0.00 | 0.00 | 0.00 | 80 | 1009.3 |
| 20260902031045 | 63 | 157 | 1.7 | 7.8 | 0.00 | 0.00 | 0.00 | 80 | 1009.4 |
| 20260902030548 | 63 | 136 | 2.6 | 8.7 | 0.00 | 0.00 | 0.00 | 80 | 1009.3 |
| 20260902030114 | 64 | 161 | 4.3 | 8.7 | 0.00 | 0.00 | 0.00 | 79 | 1009.3 |
| 20260902025545 | 64 | 164 | 2.6 | 7.8 | 0.00 | 0.00 | 0.00 | 79 | 1009.3 |
| 20260902025049 | 64 | 0 | 1.7 | 7.0 | 0.00 | 0.00 | 0.00 | 79 | 1009.1 |
| 20260902024600 | 64 | 157 | 1.7 | 6.1 | 0.00 | 0.00 | 0.00 | 79 | 1009.2 |
| 20260902024046 | 64 | 0 | 2.6 | 6.1 | 0.00 | 0.00 | 0.00 | 78 | 1009.1 |
| 20260902023546 | 64 | 0 | 0.9 | 5.2 | 0.00 | 0.00 | 0.00 | 78 | 1009.2 |
| 20260902023112 | 64 | 0 | 1.7 | 7.0 | 0.00 | 0.00 | 0.00 | 78 | 1009.1 |
| 20260902022546 | 64 | 0 | 0.9 | 7.0 | 0.00 | 0.00 | 0.00 | 78 | 1009.1 |
| 20260902022047 | 64 | 170 | 0.0 | 7.0 | 0.00 | 0.00 | 0.00 | 78 | 1009.1 |
| 20260902021613 | 64 | 148 | 1.7 | 7.0 | 0.00 | 0.00 | 0.00 | 77 | 1009.1 |
| 20260902021046 | 65 | 161 | 1.7 | 7.0 | 0.00 | 0.00 | 0.00 | 77 | 1009.2 |
| 20260902020548 | 65 | 0 | 2.6 | 9.6 | 0.00 | 0.00 | 0.00 | 77 | 1009.2 |
| 20260902015545 | 65 | 167 | 2.6 | 11.3 | 0.00 | 0.00 | 0.00 | 77 | 1009.3 |
| 20260902015047 | 65 | 153 | 4.3 | 11.3 | 0.00 | 0.00 | 0.00 | 76 | 1009.3 |
| 20260902014557 | 65 | 172 | 3.5 | 11.3 | 0.00 | 0.00 | 0.00 | 76 | 1009.3 |
| 20260902014046 | 66 | 156 | 0.9 | 7.8 | 0.00 | 0.00 | 0.00 | 76 | 1009.3 |
| 20260902013546 | 66 | 0 | 2.6 | 7.8 | 0.00 | 0.00 | 0.00 | 76 | 1009.3 |
| 20260902013057 | 66 | 179 | 1.7 | 9.6 | 0.00 | 0.00 | 0.00 | 76 | 1009.3 |
| 20260902012546 | 66 | 0 | 3.5 | 9.6 | 0.00 | 0.00 | 0.00 | 76 | 1009.2 |
| 20260902012050 | 66 | 165 | 3.5 | 8.7 | 0.00 | 0.00 | 0.00 | 76 | 1009.3 |
| 20260902011558 | 66 | 0 | 1.7 | 8.7 | 0.00 | 0.00 | 0.00 | 75 | 1009.2 |
| 20260902011046 | 66 | 114 | 2.6 | 8.7 | 0.00 | 0.00 | 0.00 | 75 | 1009.2 |
| 20260902010543 | 66 | 174 | 2.6 | 6.1 | 0.00 | 0.00 | 0.00 | 75 | 1009.3 |
| 20260902005551 | 66 | 153 | 0.9 | 7.0 | 0.00 | 0.00 | 0.00 | 76 | 1009.2 |
| 20260902005047 | 66 | 167 | 1.7 | 7.0 | 0.00 | 0.00 | 0.00 | 75 | 1009.1 |
| 20260902004602 | 67 | 0 | 0.0 | 7.0 | 0.00 | 0.00 | 0.00 | 76 | 1009.2 |
| 20260902004049 | 67 | 155 | 1.7 | 7.8 | 0.00 | 0.00 | 0.00 | 75 | 1009.2 |
| 20260902003547 | 67 | 149 | 2.6 | 8.7 | 0.00 | 0.00 | 0.00 | 74 | 1009.2 |
| 20260902003106 | 67 | 165 | 1.7 | 8.7 | 0.00 | 0.00 | 0.00 | 74 | 1009.2 |
| 20260902002547 | 67 | 148 | 2.6 | 10.4 | 0.00 | 0.00 | 0.00 | 74 | 1009.2 |
| 20260902002045 | 67 | 163 | 3.5 | 10.4 | 0.00 | 0.00 | 0.00 | 75 | 1009.1 |
| 20260902001600 | 67 | 149 | 3.5 | 9.6 | 0.00 | 0.00 | 0.00 | 75 | 1009.2 |
| 20260902001046 | 66 | 160 | 2.6 | 9.6 | 0.00 | 0.00 | 0.00 | 76 | 1009.1 |
| 20260902000546 | 66 | 148 | 1.7 | 9.6 | 0.00 | 0.00 | 0.00 | 76 | 1009.1 |
| 20260902000103 | 66 | 159 | 4.3 | 9.6 | 0.00 | 0.00 | 0.00 | 76 | 1009.2 |
| 20260901235547 | 65 | 165 | 3.5 | 8.7 | 0.00 | 0.00 | 0.00 | 77 | 1009.1 |
| 20260901235046 | 65 | 128 | 1.7 | 7.8 | 0.00 | 0.00 | 0.00 | 77 | 1009.2 |
| 20260901234615 | 65 | 146 | 1.7 | 7.8 | 0.00 | 0.00 | 0.00 | 78 | 1009.2 |
| 20260901234047 | 65 | 172 | 0.9 | 6.1 | 0.00 | 0.00 | 0.00 | 78 | 1009.2 |
| 20260901233546 | 65 | 164 | 1.7 | 6.1 | 0.00 | 0.00 | 0.00 | 77 | 1009.2 |
| 20260901233104 | 65 | 0 | 0.0 | 6.1 | 0.00 | 0.00 | 0.00 | 78 | 1009.2 |
| 20260901232547 | 65 | 165 | 1.7 | 6.1 | 0.00 | 0.00 | 0.00 | 77 | 1009.2 |
| 20260901232046 | 65 | 161 | 0.0 | 1.7 | 0.00 | 0.00 | 0.00 | 78 | 1009.2 |
| 20260901231558 | 65 | 0 | 0.0 | 5.2 | 0.00 | 0.00 | 0.00 | 78 | 1009.2 |
| 20260901231046 | 66 | 0 | 0.0 | 7.0 | 0.00 | 0.00 | 0.00 | 76 | 1009.2 |
| 20260901230544 | 66 | 161 | 0.0 | 7.8 | 0.00 | 0.00 | 0.00 | 76 | 1009.1 |
| 20260901230137 | 66 | 161 | 1.7 | 7.8 | 0.00 | 0.00 | 0.00 | 75 | 1009.1 |
| 20260901225546 | 66 | 171 | 0.9 | 7.8 | 0.00 | 0.00 | 0.00 | 75 | 1009.1 |
| 20260901225046 | 66 | 171 | 0.9 | 7.8 | 0.00 | 0.00 | 0.00 | 75 | 1009.2 |
| 20260901224602 | 66 | 159 | 0.9 | 7.8 | 0.00 | 0.00 | 0.00 | 75 | 1009.1 |
| 20260901224045 | 67 | 0 | 0.0 | 3.5 | 0.00 | 0.00 | 0.00 | 74 | 1009.1 |
| 20260901223548 | 67 | 0 | 0.0 | 4.3 | 0.00 | 0.00 | 0.00 | 74 | 1009.1 |
| 20260901223112 | 67 | 173 | 0.9 | 7.0 | 0.00 | 0.00 | 0.00 | 73 | 1009.1 |
| 20260901222548 | 67 | 174 | 0.9 | 7.0 | 0.00 | 0.00 | 0.00 | 73 | 1009.1 |
| 20260901222044 | 67 | 0 | 0.9 | 8.7 | 0.00 | 0.00 | 0.00 | 73 | 1009.1 |
| 20260901221559 | 67 | 202 | 3.5 | 8.7 | 0.00 | 0.00 | 0.00 | 72 | 1009.1 |
| 20260901221046 | 68 | 129 | 3.5 | 8.7 | 0.00 | 0.00 | 0.00 | 71 | 1009.1 |
| 20260901220547 | 68 | 179 | 1.7 | 10.4 | 0.00 | 0.00 | 0.00 | 71 | 1009.1 |
| 20260901220104 | 69 | 145 | 5.2 | 10.4 | 0.00 | 0.00 | 0.00 | 70 | 1009.1 |
| 20260901215544 | 69 | 184 | 3.5 | 9.6 | 0.00 | 0.00 | 0.00 | 70 | 1009.1 |
| 20260901215047 | 69 | 126 | 4.3 | 11.3 | 0.00 | 0.00 | 0.00 | 70 | 1009.2 |
| 20260901214559 | 68 | 150 | 3.5 | 11.3 | 0.00 | 0.00 | 0.00 | 71 | 1009.2 |
| 20260901214046 | 69 | 163 | 2.6 | 9.6 | 0.00 | 0.00 | 0.00 | 70 | 1009.2 |
| 20260901213544 | 68 | 0 | 1.7 | 8.7 | 0.00 | 0.00 | 0.00 | 71 | 1009.2 |
| 20260901213100 | 68 | 203 | 2.6 | 9.6 | 0.00 | 0.00 | 0.00 | 71 | 1009.2 |
| 20260901212546 | 68 | 169 | 2.6 | 9.6 | 0.00 | 0.00 | 0.00 | 71 | 1009.2 |
| 20260901212046 | 68 | 158 | 3.5 | 9.6 | 0.00 | 0.00 | 0.00 | 71 | 1009.4 |
| 20260901211558 | 69 | 175 | 3.5 | 9.6 | 0.00 | 0.00 | 0.00 | 70 | 1009.5 |
| 20260901211045 | 69 | 171 | 2.6 | 8.7 | 0.00 | 0.00 | 0.00 | 71 | 1009.5 |
| 20260901210543 | 69 | 184 | 0.0 | 7.8 | 0.00 | 0.00 | 0.00 | 72 | 1009.6 |
| 20260901210105 | 68 | 144 | 3.5 | 7.8 | 0.00 | 0.00 | 0.00 | 71 | 1009.6 |
| 20260901205550 | 67 | 161 | 3.5 | 7.0 | 0.00 | 0.00 | 0.00 | 72 | 1009.9 |
| 20260901205046 | 68 | 157 | 2.6 | 7.8 | 0.00 | 0.00 | 0.00 | 71 | 1009.9 |
| 20260901204601 | 68 | 211 | 3.5 | 8.7 | 0.00 | 0.00 | 0.00 | 73 | 1009.8 |
| 20260901204046 | 67 | 128 | 1.7 | 9.6 | 0.00 | 0.00 | 0.00 | 73 | 1009.9 |
| 20260901203546 | 66 | 0 | 3.5 | 9.6 | 0.00 | 0.00 | 0.00 | 74 | 1009.9 |
| 20260901203120 | 66 | 172 | 2.6 | 9.6 | 0.00 | 0.00 | 0.00 | 73 | 1009.9 |
| 20260901202547 | 66 | 153 | 2.6 | 12.2 | 0.00 | 0.00 | 0.00 | 74 | 1009.9 |
| 20260901202047 | 66 | 155 | 4.3 | 12.2 | 0.00 | 0.00 | 0.00 | 74 | 1010.0 |
| 20260901201602 | 66 | 188 | 5.2 | 12.2 | 0.00 | 0.00 | 0.00 | 74 | 1010.1 |
| 20260901201046 | 66 | 157 | 4.3 | 12.2 | 0.00 | 0.00 | 0.00 | 75 | 1010.1 |
| 20260901200545 | 66 | 153 | 4.3 | 12.2 | 0.00 | 0.00 | 0.00 | 74 | 1010.1 |
| 20260901200105 | 65 | 167 | 4.3 | 9.6 | 0.00 | 0.00 | 0.00 | 75 | 1010.0 |
| 20260901195547 | 65 | 156 | 1.7 | 7.8 | 0.00 | 0.00 | 0.00 | 77 | 1010.1 |
| 20260901195047 | 64 | 176 | 2.6 | 7.8 | 0.00 | 0.00 | 0.00 | 77 | 1010.0 |
| 20260901194605 | 64 | 269 | 3.5 | 8.7 | 0.00 | 0.00 | 0.00 | 76 | 1010.1 |
| 20260901194046 | 65 | 178 | 4.3 | 8.7 | 0.00 | 0.00 | 0.00 | 77 | 1010.0 |
| 20260901193547 | 65 | 165 | 2.6 | 7.8 | 0.00 | 0.00 | 0.00 | 77 | 1010.0 |
| 20260901193059 | 64 | 209 | 2.6 | 11.3 | 0.00 | 0.00 | 0.00 | 78 | 1010.0 |
| 20260901192546 | 64 | 183 | 2.6 | 11.3 | 0.00 | 0.00 | 0.00 | 79 | 1010.0 |
| 20260901192051 | 64 | 153 | 5.2 | 9.6 | 0.00 | 0.00 | 0.00 | 79 | 1010.1 |
| 20260901191603 | 65 | 175 | 2.6 | 8.7 | 0.00 | 0.00 | 0.00 | 79 | 1010.0 |
| 20260901191046 | 64 | 236 | 2.6 | 10.4 | 0.00 | 0.00 | 0.00 | 79 | 1010.1 |
| 20260901190546 | 65 | 203 | 3.5 | 11.3 | 0.00 | 0.00 | 0.00 | 78 | 1010.0 |
| 20260901190110 | 65 | 178 | 2.6 | 11.3 | 0.00 | 0.00 | 0.00 | 78 | 1010.0 |
| 20260901185546 | 65 | 198 | 4.3 | 9.6 | 0.00 | 0.00 | 0.00 | 77 | 1009.9 |
| 20260901185050 | 65 | 220 | 0.9 | 7.8 | 0.00 | 0.00 | 0.00 | 77 | 1009.8 |
| 20260901184558 | 64 | 192 | 3.5 | 8.7 | 0.00 | 0.00 | 0.00 | 77 | 1009.8 |
| 20260901184046 | 65 | 163 | 3.5 | 8.7 | 0.00 | 0.00 | 0.00 | 76 | 1009.8 |
| 20260901183550 | 64 | 168 | 2.6 | 7.8 | 0.00 | 0.00 | 0.00 | 80 | 1009.9 |
| 20260901183110 | 64 | 199 | 2.6 | 6.1 | 0.00 | 0.00 | 0.00 | 79 | 1009.9 |